EW9394 Weather Reports


Display with metric or nautical units.
time (UTC)temp
F
wind
direction
speed
MPH
gust
MPH
rain 1hr
in
rain 24hr
in
rain mn
in
humidity
%
barometer
mb
20260507201449 75 92 1.0 2.0 0.00 0.00 0.00 53 1017.5
20260507200947 74 85 1.0 1.0 0.00 0.00 0.00 53 1017.8
20260507200442 74 146 2.0 2.0 0.00 0.00 0.00 54 1017.8
20260507195938 75 164 2.0 2.0 0.00 0.00 0.00 52 1017.9
20260507195436 74 152 2.0 2.0 0.00 0.00 0.00 53 1017.7
20260507194933 75 96 0.0 0.0 0.00 0.00 0.00 53 1017.9
20260507194430 74 246 0.0 0.0 0.00 0.00 0.00 50 1018.1
20260507193926 75 155 1.0 1.0 0.00 0.00 0.00 50 1018.3
20260507193423 75 309 3.0 3.0 0.00 0.00 0.00 50 1018.1
20260507192920 74 104 1.0 2.0 0.00 0.00 0.00 51 1018.1
20260507192415 74 283 1.0 2.0 0.00 0.00 0.00 51 1018.1
20260507191913 76 63 1.0 1.0 0.00 0.00 0.00 51 1018.4
20260507191409 76 305 3.0 3.0 0.00 0.00 0.00 49 1018.4
20260507190905 75 157 1.0 1.0 0.00 0.00 0.00 52 1018.6
20260507190403 75 69 1.0 2.0 0.00 0.00 0.00 52 1018.5
20260507185902 74 277 1.0 2.0 0.00 0.00 0.00 56 1018.7
20260507185359 74 343 1.0 1.0 0.00 0.00 0.00 52 1018.3
20260507184856 73 132 2.0 2.0 0.00 0.00 0.00 53 1018.6
20260507184354 73 351 4.0 5.0 0.00 0.00 0.00 53 1018.5
20260507183850 73 274 1.0 2.0 0.00 0.00 0.00 52 1018.6
20260507183347 73 15 3.0 3.0 0.00 0.00 0.00 51 1018.6
20260507182845 73 123 2.0 3.0 0.00 0.00 0.00 51 1018.8
20260507182341 73 326 4.0 7.0 0.00 0.00 0.00 51 1018.8
20260507181837 72 278 2.0 3.0 0.00 0.00 0.00 53 1019.1
20260507181333 71 44 2.0 2.0 0.00 0.00 0.00 54 1018.8
20260507180830 71 343 2.0 3.0 0.00 0.00 0.00 53 1019.1
20260507180327 72 35 1.0 1.0 0.00 0.00 0.00 54 1019.3
20260507175822 72 320 3.0 3.0 0.00 0.00 0.00 54 1019.2
20260507175320 71 358 1.0 2.0 0.00 0.00 0.00 56 1019.4
20260507174817 70 261 1.0 1.0 0.00 0.00 0.00 56 1019.4
20260507174315 70 306 3.0 3.0 0.00 0.00 0.00 56 1019.4
20260507173812 71 263 3.0 5.0 0.00 0.00 0.00 56 1019.6
20260507173309 70 69 1.0 1.0 0.00 0.00 0.00 56 1019.9
20260507172805 70 312 1.0 1.0 0.00 0.00 0.00 56 1019.8
20260507172306 70 11 2.0 2.0 0.00 0.00 0.00 56 1020.2
20260507171758 70 246 2.0 2.0 0.00 0.00 0.00 57 1020.1
20260507171255 69 58 2.0 2.0 0.00 0.00 0.00 55 1020.3
20260507170752 69 330 4.0 5.0 0.00 0.00 0.00 56 1020.5
20260507170248 70 308 5.0 7.0 0.00 0.00 0.00 57 1020.7
20260507165744 69 21 0.0 0.0 0.00 0.00 0.00 59 1020.8
20260507165240 70 283 4.0 6.0 0.00 0.00 0.00 57 1020.8
20260507164737 69 100 1.0 1.0 0.00 0.00 0.00 60 1020.7
20260507164234 68 286 2.0 2.0 0.00 0.00 0.00 60 1020.8
20260507163731 68 313 3.0 6.0 0.00 0.00 0.00 60 1020.8
20260507163229 68 303 3.0 3.0 0.00 0.00 0.00 60 1021.1
20260507162724 68 303 1.0 1.0 0.00 0.00 0.00 60 1021.0
20260507162221 67 38 0.0 0.0 0.00 0.00 0.00 63 1021.1
20260507161718 67 58 1.0 2.0 0.00 0.00 0.00 62 1020.8
20260507161214 66 210 1.0 2.0 0.00 0.00 0.00 65 1020.8
20260507160710 66 162 1.0 1.0 0.00 0.00 0.00 64 1021.1
20260507160207 66 292 1.0 2.0 0.00 0.00 0.00 63 1020.9
20260507155702 67 116 0.0 0.0 0.00 0.00 0.00 64 1020.9
20260507155159 66 131 0.0 1.0 0.00 0.00 0.00 65 1021.0
20260507154655 66 178 1.0 1.0 0.00 0.00 0.00 65 1021.2
20260507154153 66 62 1.0 1.0 0.00 0.00 0.00 65 1021.0
20260507153649 66 353 0.0 1.0 0.00 0.00 0.00 65 1021.1
20260507153146 66 262 1.0 2.0 0.00 0.00 0.00 67 1021.1
20260507152642 65 285 1.0 2.0 0.00 0.00 0.00 66 1021.2
20260507152138 66 320 2.0 3.0 0.00 0.00 0.00 64 1021.3
20260507151635 65 14 1.0 1.0 0.00 0.00 0.00 67 1021.2
20260507151132 64 78 0.0 1.0 0.00 0.00 0.00 68 1021.4
20260507150629 63 279 1.0 1.0 0.00 0.00 0.00 71 1021.5
20260507150125 62 31 3.0 3.0 0.00 0.00 0.00 71 1021.4
20260507145626 63 297 4.0 6.0 0.00 0.00 0.00 70 1021.6
20260507145124 63 79 1.0 1.0 0.00 0.00 0.00 71 1021.4
20260507144620 63 303 0.0 1.0 0.00 0.00 0.00 73 1021.4
20260507144118 63 332 0.0 1.0 0.00 0.00 0.00 73 1021.6
20260507143614 62 135 0.0 0.0 0.00 0.00 0.00 74 1021.5
20260507143112 62 127 0.0 1.0 0.00 0.00 0.00 74 1021.6
20260507142607 62 81 0.0 0.0 0.00 0.00 0.00 75 1021.5
20260507142104 61 336 1.0 1.0 0.00 0.00 0.00 76 1021.7
20260507141600 60 320 0.0 1.0 0.00 0.00 0.00 77 1021.5
20260507141057 60 275 1.0 1.0 0.00 0.00 0.00 78 1021.7
20260507140554 61 268 1.0 1.0 0.00 0.00 0.00 77 1021.7
20260507140051 59 310 0.0 0.0 0.00 0.00 0.00 80 1021.9
20260507135548 59 276 1.0 1.0 0.00 0.00 0.00 82 1022.1
20260507135045 58 271 1.0 1.0 0.00 0.00 0.00 85 1022.0
20260507134542 58 276 0.0 0.0 0.00 0.00 0.00 86 1021.9
20260507134037 57 276 0.0 1.0 0.00 0.00 0.00 88 1022.2
20260507133534 57 283 1.0 1.0 0.00 0.00 0.00 89 1022.1
20260507133032 57 263 0.0 1.0 0.00 0.00 0.00 91 1022.1
20260507132528 56 262 1.0 1.0 0.00 0.00 0.00 92 1022.1
20260507132025 56 280 1.0 2.0 0.00 0.00 0.00 93 1022.1
20260507131522 55 255 1.0 1.0 0.00 0.00 0.00 94 1022.1
20260507131019 55 262 2.0 2.0 0.00 0.00 0.00 95 1022.0
20260507130515 54 259 0.0 1.0 0.00 0.00 0.00 96 1021.9
20260507130014 54 262 1.0 1.0 0.00 0.00 0.00 97 1021.9
20260507125512 54 265 0.0 0.0 0.00 0.00 0.00 97 1022.0
20260507125011 53 274 0.0 0.0 0.00 0.00 0.00 97 1022.0
20260507124506 53 275 0.0 0.0 0.00 0.00 0.00 98 1021.6
20260507124003 53 275 0.0 0.0 0.00 0.00 0.00 98 1021.7
20260507123501 53 275 0.0 0.0 0.00 0.00 0.00 98 1021.9
20260507122957 53 275 0.0 0.0 0.00 0.00 0.00 98 1021.8
20260507122453 52 275 0.0 0.0 0.00 0.00 0.00 98 1021.7
20260507121949 52 275 0.0 0.0 0.00 0.00 0.00 98 1021.8
20260507121444 52 275 0.0 0.0 0.00 0.00 0.00 98 1021.4
20260507120941 51 275 0.0 0.0 0.00 0.00 0.00 98 1021.5
20260507120437 51 275 0.0 0.0 0.00 0.00 0.00 98 1021.4
20260507115934 51 275 0.0 0.0 0.00 0.00 0.00 98 1021.3
20260507115430 51 275 0.0 0.0 0.00 0.00 0.00 98 1021.4
20260507114926 51 275 0.0 0.0 0.00 0.00 0.00 98 1021.2
20260507114423 51 275 0.0 0.0 0.00 0.00 0.00 98 1020.9
20260507113920 51 276 0.0 0.0 0.00 0.00 0.00 98 1021.1
20260507113417 51 276 0.0 0.0 0.00 0.00 0.00 98 1021.2
20260507112914 51 276 0.0 0.0 0.00 0.00 0.00 97 1021.3
20260507112412 51 276 0.0 0.0 0.00 0.00 0.00 98 1021.1
20260507111909 51 276 0.0 0.0 0.00 0.00 0.00 97 1021.0
20260507111406 51 276 0.0 0.0 0.00 0.00 0.00 97 1021.0
20260507110902 51 276 0.0 0.0 0.00 0.00 0.00 97 1021.2
20260507110358 52 276 0.0 0.0 0.00 0.00 0.00 97 1020.8
20260507105855 52 276 0.0 0.0 0.00 0.00 0.00 97 1020.5
20260507105352 52 276 0.0 0.0 0.00 0.00 0.00 97 1020.3
20260507104848 52 276 0.0 0.0 0.00 0.00 0.00 97 1020.3
20260507104345 51 276 0.0 0.0 0.00 0.00 0.00 97 1020.3
20260507103841 52 276 0.0 0.0 0.00 0.00 0.00 97 1019.9
20260507103338 51 276 0.0 0.0 0.00 0.00 0.00 97 1019.9
20260507102834 51 276 0.0 0.0 0.00 0.00 0.00 97 1019.9
20260507102331 51 276 0.0 0.0 0.00 0.00 0.00 96 1020.1
20260507101828 51 276 0.0 0.0 0.00 0.00 0.00 96 1019.8
20260507101327 51 276 0.0 0.0 0.00 0.00 0.00 96 1020.1
20260507100825 51 276 0.0 0.0 0.00 0.00 0.00 96 1019.8
20260507100323 52 276 0.0 0.0 0.00 0.00 0.00 96 1019.7
20260507095821 52 276 0.0 0.0 0.00 0.00 0.00 95 1019.7
20260507095317 52 276 0.0 0.0 0.00 0.00 0.00 95 1019.7
20260507094814 52 276 0.0 0.0 0.00 0.00 0.00 95 1019.7
20260507094311 52 276 0.0 0.0 0.00 0.00 0.00 95 1019.5
20260507093808 52 276 0.0 0.0 0.00 0.00 0.00 95 1019.4
20260507093306 52 276 0.0 0.0 0.00 0.00 0.00 94 1019.5
20260507092804 53 276 0.0 0.0 0.00 0.00 0.00 94 1019.4
20260507092300 53 277 0.0 0.0 0.00 0.00 0.00 94 1019.5
20260507091756 53 277 0.0 0.0 0.00 0.00 0.00 93 1019.5
20260507091253 53 278 1.0 1.0 0.00 0.00 0.00 93 1019.4
20260507090753 53 278 0.0 0.0 0.00 0.00 0.00 93 1019.2
20260507090250 53 279 0.0 0.0 0.00 0.00 0.00 93 1019.4
20260507085747 53 282 0.0 0.0 0.00 0.00 0.00 92 1019.5
20260507085244 54 289 0.0 0.0 0.00 0.00 0.00 92 1019.3
20260507084742 54 293 0.0 1.0 0.00 0.00 0.00 91 1019.4
20260507084238 54 296 0.0 0.0 0.00 0.00 0.00 91 1019.2
20260507083735 54 299 0.0 0.0 0.00 0.00 0.00 90 1019.3
20260507083232 54 304 0.0 0.0 0.00 0.00 0.00 90 1019.1
20260507082728 54 310 0.0 0.0 0.00 0.00 0.00 89 1019.3
20260507082224 55 317 0.0 0.0 0.00 0.00 0.00 89 1019.2
20260507081721 55 324 0.0 1.0 0.00 0.00 0.00 89 1019.4
20260507081217 55 356 1.0 1.0 0.00 0.00 0.00 89 1019.1
20260507080714 55 74 0.0 0.0 0.00 0.00 0.00 89 1019.1
20260507080210 55 66 0.0 0.0 0.00 0.00 0.00 88 1018.9
20260507075705 55 339 1.0 1.0 0.00 0.00 0.00 88 1019.2
20260507075202 55 26 0.0 0.0 0.00 0.00 0.00 88 1019.1
20260507074658 55 111 1.0 1.0 0.00 0.00 0.00 88 1018.7
20260507074157 55 86 0.0 0.0 0.00 0.00 0.00 89 1018.7
20260507073653 55 104 0.0 1.0 0.00 0.00 0.00 89 1018.9
20260507073149 55 71 0.0 1.0 0.00 0.00 0.00 89 1018.8
20260507072647 55 77 1.0 2.0 0.00 0.00 0.00 89 1019.0
20260507072144 55 56 0.0 1.0 0.00 0.00 0.00 89 1018.8
20260507071642 55 349 0.0 0.0 0.00 0.00 0.00 89 1019.0
20260507071138 56 124 0.0 0.0 0.00 0.00 0.00 89 1018.7
20260507070635 56 117 0.0 1.0 0.00 0.00 0.00 89 1018.7
20260507070132 56 107 0.0 1.0 0.00 0.00 0.00 89 1018.8
20260507065628 56 110 0.0 1.0 0.00 0.00 0.00 88 1018.9
20260507065125 56 91 0.0 0.0 0.00 0.00 0.00 88 1018.9
20260507064623 56 77 1.0 1.0 0.00 0.00 0.00 88 1018.8
20260507064121 56 72 0.0 0.0 0.00 0.00 0.00 87 1018.9
20260507063618 56 76 0.0 0.0 0.00 0.00 0.00 87 1018.9
20260507063115 56 66 0.0 0.0 0.00 0.00 0.00 87 1018.5
20260507062612 56 75 0.0 0.0 0.00 0.00 0.00 87 1018.5
20260507062110 56 89 0.0 1.0 0.00 0.00 0.00 86 1018.6
20260507061607 57 66 1.0 1.0 0.00 0.00 0.00 86 1018.8
20260507061105 57 63 0.0 1.0 0.00 0.00 0.00 86 1018.8
20260507060603 57 67 0.0 1.0 0.00 0.00 0.00 85 1018.6
20260507060059 57 66 1.0 2.0 0.00 0.00 0.00 85 1018.6
20260507055554 57 83 0.0 0.0 0.00 0.00 0.00 84 1018.7
20260507055051 57 74 0.0 1.0 0.00 0.00 0.00 85 1018.6
20260507054547 57 83 1.0 2.0 0.00 0.00 0.00 85 1018.8
20260507054044 57 85 1.0 1.0 0.00 0.00 0.00 85 1018.6
20260507053542 57 88 0.0 0.0 0.00 0.00 0.00 85 1018.7
20260507053040 57 61 1.0 1.0 0.00 0.00 0.00 84 1018.5
20260507052537 57 44 1.0 2.0 0.00 0.00 0.00 85 1018.6
20260507052034 58 76 1.0 1.0 0.00 0.00 0.00 86 1018.7
20260507051532 58 77 1.0 1.0 0.00 0.00 0.00 85 1018.8
20260507051028 58 62 1.0 2.0 0.00 0.00 0.00 85 1019.0
20260507050525 58 91 1.0 1.0 0.00 0.00 0.00 85 1018.7
20260507050022 58 80 0.0 0.0 0.00 0.16 0.16 84 1018.6
20260507045518 59 132 1.0 1.0 0.00 0.16 0.16 84 1018.8
20260507045016 59 149 0.0 1.0 0.00 0.16 0.16 83 1018.9
20260507044512 59 64 1.0 2.0 0.00 0.16 0.16 83 1018.6
20260507044009 59 163 0.0 2.0 0.00 0.16 0.16 83 1018.7
20260507043505 59 146 1.0 1.0 0.00 0.16 0.16 84 1018.7
20260507043001 59 91 1.0 1.0 0.00 0.16 0.16 84 1018.8
20260507042458 59 72 3.0 5.0 0.00 0.16 0.16 83 1018.8
20260507041954 59 347 2.0 3.0 0.00 0.16 0.16 83 1018.9
20260507041451 59 58 1.0 2.0 0.00 0.16 0.16 83 1019.0
20260507040948 59 79 1.0 1.0 0.00 0.16 0.16 83 1019.3
20260507040443 59 17 0.0 0.0 0.00 0.16 0.16 83 1019.1
20260507035939 59 23 1.0 1.0 0.00 0.16 0.16 83 1019.2
20260507035436 59 73 2.0 2.0 0.00 0.16 0.16 83 1019.1
20260507034933 59 330 1.0 1.0 0.00 0.16 0.16 83 1019.2
20260507034430 59 348 3.0 3.0 0.00 0.16 0.16 83 1019.1
20260507033928 59 315 2.0 2.0 0.00 0.16 0.16 83 1019.1
20260507033425 59 340 2.0 2.0 0.00 0.16 0.16 83 1018.9
20260507032922 59 58 4.0 6.0 0.00 0.16 0.16 83 1018.9
20260507032419 59 328 2.0 3.0 0.00 0.16 0.16 83 1018.8
20260507031915 59 312 2.0 2.0 0.00 0.16 0.16 84 1019.0
20260507031412 59 281 2.0 2.0 0.00 0.16 0.16 84 1019.0
20260507030909 59 299 0.0 0.0 0.00 0.16 0.16 84 1018.7
20260507030406 59 306 1.0 2.0 0.00 0.16 0.16 83 1018.7
20260507025903 59 31 0.0 0.0 0.00 0.16 0.16 83 1018.4
20260507025400 59 9 0.0 1.0 0.00 0.16 0.16 83 1018.4
20260507024858 59 297 1.0 2.0 0.00 0.16 0.16 84 1018.3
20260507024355 59 335 2.0 3.0 0.00 0.16 0.16 84 1018.1
20260507023851 59 17 0.0 1.0 0.00 0.16 0.16 84 1017.9
20260507023348 59 316 0.0 0.0 0.00 0.16 0.16 84 1018.1
20260507022845 59 105 0.0 1.0 0.00 0.16 0.16 84 1017.9
20260507022342 59 29 1.0 1.0 0.00 0.16 0.16 84 1017.7
20260507021837 59 355 0.0 1.0 0.00 0.16 0.16 84 1017.8
20260507021333 59 34 0.0 1.0 0.00 0.16 0.16 84 1017.8
20260507020831 59 71 0.0 0.0 0.00 0.16 0.16 85 1017.4
20260507020328 59 58 1.0 1.0 0.00 0.16 0.16 85 1017.5
20260507015825 59 72 1.0 1.0 0.00 0.16 0.16 85 1017.2
20260507015323 59 299 0.0 0.0 0.00 0.16 0.16 85 1017.3
20260507014820 59 31 3.0 3.0 0.00 0.16 0.16 85 1017.0
20260507014316 59 351 2.0 5.0 0.00 0.16 0.16 85 1017.1
20260507013812 59 310 1.0 5.0 0.00 0.16 0.16 86 1016.9
20260507013309 60 30 2.0 2.0 0.00 0.16 0.16 86 1017.0
20260507012807 60 98 1.0 1.0 0.00 0.16 0.16 86 1016.8
20260507012306 60 283 1.0 1.0 0.00 0.16 0.16 86 1016.6
20260507011800 60 270 0.0 0.0 0.00 0.16 0.16 86 1016.8
20260507011256 60 56 0.0 1.0 0.00 0.16 0.16 86 1016.6
20260507010756 60 34 2.0 2.0 0.00 0.16 0.16 86 1016.4
20260507010252 60 300 0.0 1.0 0.00 0.16 0.16 86 1016.3
20260507005750 60 304 1.0 2.0 0.00 0.16 0.16 86 1016.4
20260507005246 60 278 0.0 0.0 0.00 0.16 0.16 86 1016.5
20260507004743 60 28 0.0 1.0 0.00 0.16 0.16 86 1016.4
20260507004241 60 326 1.0 1.0 0.00 0.16 0.16 86 1016.4
20260507003736 59 309 0.0 1.0 0.00 0.16 0.16 86 1016.2
20260507003232 59 32 0.0 0.0 0.00 0.16 0.16 85 1016.0
20260507002728 59 284 1.0 1.0 0.00 0.16 0.16 85 1016.1
20260507002224 60 68 1.0 2.0 0.00 0.16 0.16 85 1015.8
20260507001721 60 23 1.0 1.0 0.00 0.16 0.16 85 1016.1
20260507001218 60 7 0.0 1.0 0.00 0.16 0.16 85 1016.1
20260507000715 60 42 2.0 2.0 0.00 0.16 0.16 85 1015.8
20260507000212 60 351 3.0 3.0 0.00 0.16 0.16 85 1015.6
20260506235708 60 78 0.0 1.0 0.00 0.16 0.16 84 1015.7
20260506235203 60 156 0.0 1.0 0.00 0.16 0.16 84 1015.6
20260506234700 60 40 1.0 2.0 0.00 0.16 0.16 84 1015.8
20260506234157 60 279 2.0 3.0 0.00 0.16 0.16 84 1015.9
20260506233655 60 24 0.0 1.0 0.00 0.16 0.16 84 1016.0
20260506233151 60 26 0.0 2.0 0.00 0.16 0.16 84 1015.9
20260506232647 60 354 2.0 2.0 0.00 0.16 0.16 83 1015.7
20260506232143 60 55 1.0 1.0 0.00 0.16 0.16 83 1015.7
20260506231640 60 14 1.0 2.0 0.00 0.16 0.16 82 1015.4
20260506231139 61 262 0.0 1.0 0.00 0.16 0.16 81 1015.3
20260506230635 61 60 1.0 1.0 0.00 0.16 0.16 81 1015.3
20260506230132 61 298 2.0 2.0 0.00 0.16 0.16 81 1015.4
20260506225628 61 290 3.0 3.0 0.00 0.16 0.16 81 1014.9
20260506225125 60 60 3.0 6.0 0.00 0.16 0.16 81 1015.2
20260506224622 60 342 0.0 1.0 0.00 0.16 0.16 82 1015.3
20260506224118 60 313 1.0 1.0 0.00 0.16 0.16 82 1015.7
20260506223614 60 21 3.0 5.0 0.00 0.16 0.16 81 1015.2
20260506223110 60 101 0.0 0.0 0.00 0.16 0.16 82 1015.4
20260506222608 60 20 4.0 5.0 0.00 0.16 0.16 81 1015.4
20260506222104 60 312 3.0 3.0 0.00 0.16 0.16 81 1015.4
20260506221602 60 331 1.0 2.0 0.00 0.16 0.16 81 1015.6
20260506221100 60 24 3.0 7.0 0.00 0.16 0.16 80 1015.2
20260506220555 60 342 4.0 5.0 0.00 0.16 0.16 80 1014.7
20260506220051 61 5 3.0 5.0 0.00 0.16 0.16 80 1014.9
20260506215548 61 352 0.0 1.0 0.00 0.16 0.16 80 1015.1
20260506215044 61 294 1.0 1.0 0.00 0.16 0.16 80 1014.7
20260506214541 61 358 0.0 0.0 0.00 0.16 0.16 80 1015.4
20260506214038 61 309 2.0 2.0 0.00 0.16 0.16 80 1014.9
20260506213536 61 298 3.0 7.0 0.00 0.16 0.16 80 1015.0
20260506213033 61 0 3.0 3.0 0.00 0.16 0.16 79 1015.1
20260506212530 61 275 2.0 2.0 0.00 0.16 0.16 79 1015.1
20260506212025 62 280 3.0 3.0 0.00 0.16 0.16 78 1015.0
20260506211521 62 19 1.0 2.0 0.00 0.16 0.16 77 1015.1
20260506211018 62 254 0.0 1.0 0.00 0.16 0.16 78 1015.3
20260506210515 62 333 1.0 1.0 0.00 0.16 0.16 79 1015.1
20260506210011 61 278 2.0 3.0 0.00 0.16 0.16 80 1015.3
20260506205508 61 310 1.0 1.0 0.00 0.16 0.16 80 1015.3
20260506205003 61 262 3.0 3.0 0.00 0.16 0.16 80 1015.4
20260506204502 61 300 3.0 3.0 0.00 0.16 0.16 79 1015.4
20260506203958 61 298 2.0 2.0 0.00 0.16 0.16 79 1015.5
20260506203456 62 296 3.0 5.0 0.00 0.16 0.16 79 1015.5
20260506202953 62 337 1.0 1.0 0.00 0.16 0.16 80 1015.4
20260506202450 60 267 0.0 1.0 0.00 0.16 0.16 81 1015.5
20260506201946 60 340 2.0 2.0 0.00 0.16 0.16 81 1015.8